Location: *
(34.6780°N, 135.8310°E)
Time: 02:35:41
(UTC+00:00)

H-2A R/B - Pass Details

Date: 18 October 2019
Orbit: 530 x 653 km, 98.3° (Epoch: 13 November)

Event Time Altitude Azimuth Distance (km) Brightness Sun altitude
Rises 18:37:48 0° 19° (NNE) 2,820 6.3 -30.9°
Reaches altitude 10° 18:40:00 10° 25° (NNE) 1,936 5.5 -30.5°
Enters shadow 18:42:42 34° 51° (NE) 998 4.0 -29.9°
